| time (UTC) | temp F | wind direction | speed MPH | gust MPH | rain 1hr in | rain 24hr in | rain mn in | humidity % | barometer mb |
| 20260504190037 | 77 | 212 | 5.0 | 13.0 | 0.00 | 0.00 | 0.00 | 76 | 1014.1 |
| 20260504184534 | 78 | 34 | 3.0 | 11.0 | 0.00 | 0.00 | 0.00 | 74 | 1014.4 |
| 20260504183034 | 78 | 44 | 2.0 | 14.0 | 0.00 | 0.00 | 0.00 | 76 | 1014.5 |
| 20260504181529 | 78 | 89 | 5.0 | 14.0 | 0.00 | 0.00 | 0.00 | 75 | 1014.4 |
| 20260504180029 | 78 | 98 | 2.0 | 16.0 | 0.00 | 0.00 | 0.00 | 75 | 1014.6 |
| 20260504174528 | 78 | 356 | 4.0 | 13.0 | 0.00 | 0.00 | 0.00 | 76 | 1014.7 |
| 20260504173027 | 76 | 39 | 5.0 | 14.0 | 0.00 | 0.00 | 0.00 | 77 | 1014.7 |
| 20260504171526 | 77 | 67 | 6.0 | 17.0 | 0.00 | 0.00 | 0.00 | 75 | 1014.7 |
| 20260504170125 | 77 | 345 | 5.0 | 16.0 | 0.00 | 0.00 | 0.00 | 77 | 1014.9 |
| 20260504081536 | 74 | 53 | 2.0 | 10.0 | 0.00 | 0.23 | 0.00 | 83 | 1011.9 |
| 20260504050009 | 74 | 43 | 2.0 | 8.0 | 0.00 | 0.23 | 0.00 | 84 | 1013.9 |
| 20260504044514 | 73 | 57 | 2.0 | 7.0 | 0.00 | 0.23 | 0.00 | 84 | 1013.9 |
| 20260504043007 | 73 | 357 | 1.0 | 5.0 | 0.00 | 0.23 | 0.00 | 84 | 1013.9 |
| 20260504041504 | 73 | 39 | 1.0 | 6.0 | 0.00 | 0.23 | 0.00 | 85 | 1014.1 |
| 20260504040003 | 73 | 50 | 3.0 | 6.0 | 0.00 | 0.23 | 0.23 | 85 | 1014.1 |
| 20260504034503 | 73 | 52 | 1.0 | 7.0 | 0.00 | 0.23 | 0.23 | 85 | 1014.4 |
| 20260504033002 | 73 | 86 | 2.0 | 11.0 | 0.00 | 0.23 | 0.23 | 86 | 1014.5 |
| 20260504031502 | 73 | 63 | 0.0 | 6.0 | 0.00 | 0.23 | 0.23 | 86 | 1014.6 |
| 20260504030001 | 73 | 34 | 2.0 | 8.0 | 0.00 | 0.23 | 0.23 | 86 | 1014.6 |
| 20260504024501 | 73 | 40 | 2.0 | 10.0 | 0.00 | 0.23 | 0.23 | 86 | 1014.4 |
| 20260504023102 | 73 | 65 | 2.0 | 10.0 | 0.00 | 0.23 | 0.23 | 83 | 1014.4 |
| 20260504021559 | 73 | 41 | 2.0 | 7.0 | 0.00 | 0.23 | 0.23 | 83 | 1014.4 |
| 20260504020059 | 72 | 49 | 1.0 | 8.0 | 0.00 | 0.23 | 0.23 | 85 | 1014.3 |
| 20260504014602 | 72 | 54 | 1.0 | 6.0 | 0.00 | 0.23 | 0.23 | 87 | 1014.1 |
| 20260504013111 | 71 | 47 | 1.0 | 8.0 | 0.00 | 0.23 | 0.23 | 88 | 1014.1 |
| 20260504011558 | 71 | 65 | 0.0 | 4.0 | 0.00 | 0.23 | 0.23 | 89 | 1014.1 |
| 20260504010113 | 72 | 15 | 1.0 | 7.0 | 0.00 | 0.23 | 0.23 | 88 | 1014.0 |
| 20260504004556 | 73 | 48 | 1.0 | 8.0 | 0.00 | 0.23 | 0.23 | 84 | 1013.9 |
| 20260504003055 | 73 | 42 | 2.0 | 7.0 | 0.00 | 0.23 | 0.23 | 83 | 1013.9 |
| 20260504001601 | 73 | 50 | 2.0 | 8.0 | 0.00 | 0.23 | 0.23 | 83 | 1013.6 |
| 20260504000057 | 73 | 39 | 0.0 | 5.0 | 0.00 | 0.23 | 0.23 | 82 | 1013.5 |
| 20260503234553 | 73 | 18 | 0.0 | 6.0 | 0.00 | 0.23 | 0.23 | 82 | 1013.5 |
| 20260503233101 | 73 | 68 | 0.0 | 4.0 | 0.00 | 0.23 | 0.23 | 83 | 1013.4 |
| 20260503231553 | 73 | 71 | 2.0 | 6.0 | 0.00 | 0.23 | 0.23 | 83 | 1013.2 |
| 20260503230054 | 73 | 53 | 2.0 | 6.0 | 0.00 | 0.23 | 0.23 | 84 | 1013.2 |
| 20260503224551 | 73 | 58 | 1.0 | 6.0 | 0.00 | 0.23 | 0.23 | 82 | 1013.1 |
| 20260503223051 | 73 | 57 | 1.0 | 6.0 | 0.00 | 0.23 | 0.23 | 82 | 1013.2 |
| 20260503221557 | 73 | 57 | 2.0 | 7.0 | 0.00 | 0.23 | 0.23 | 81 | 1013.3 |
| 20260503220101 | 74 | 60 | 0.0 | 3.0 | 0.00 | 0.23 | 0.23 | 81 | 1013.4 |
| 20260503214551 | 74 | 34 | 1.0 | 7.0 | 0.00 | 0.23 | 0.23 | 80 | 1013.3 |
| 20260503213050 | 74 | 1 | 0.0 | 8.0 | 0.00 | 0.23 | 0.23 | 82 | 1013.3 |
| 20260503211548 | 73 | 53 | 0.0 | 8.0 | 0.00 | 0.23 | 0.23 | 82 | 1013.4 |
| 20260503210054 | 73 | 55 | 0.0 | 6.0 | 0.00 | 0.23 | 0.23 | 82 | 1013.5 |
| 20260503204601 | 73 | 43 | 1.0 | 6.0 | 0.00 | 0.23 | 0.23 | 81 | 1013.7 |
| 20260503203051 | 73 | 18 | 1.0 | 5.0 | 0.00 | 0.23 | 0.23 | 82 | 1013.9 |
| 20260503201546 | 73 | 55 | 1.0 | 6.0 | 0.00 | 0.23 | 0.23 | 82 | 1013.9 |
| 20260503200047 | 73 | 53 | 1.0 | 8.0 | 0.00 | 0.23 | 0.23 | 82 | 1013.9 |
| 20260503194556 | 74 | 56 | 3.0 | 9.0 | 0.00 | 0.23 | 0.23 | 82 | 1013.9 |
| 20260503193043 | 74 | 23 | 2.0 | 9.0 | 0.00 | 0.23 | 0.23 | 82 | 1013.9 |
| 20260503191543 | 73 | 2 | 4.0 | 10.0 | 0.00 | 0.23 | 0.23 | 83 | 1014.1 |